Location: Archemont
(49.1579°N, 1.7598°E)
Time: 10:23:05
(UTC+00:00)

deb Explorer IX - Pass Details

Date: 21 April 2024
Orbit: 513 x 891 km, 38.7° (Epoch: 23 May)

Event Time Altitude Azimuth Distance (km) Brightness Sun altitude
Rises 14:42:36 0° 263° (W) 3,509 ? 39.0°
Reaches altitude 10° 14:45:47 10° 248° (WSW) 2,576 ? 38.5°
Maximum altitude 14:50:17 21° 202° (SSW) 1,882 ? 37.9°
Drops below altitude 10° 14:54:43 10° 155° (SSE) 2,518 ? 37.2°
Sets 14:57:47 0° 140° (SE) 3,408 ? 36.8°
